Weather History for Cincinnati, OH

Change the Weather History Date:

Friday, January 18, 2013

  Actual Average Record
Temperature  
Mean Temperature 29 °F -  
Max Temperature 39 °F 38 °F 64 °F (1952)
Min Temperature 19 °F 21 °F -15 °F (1977)
Degree Days  
Heating Degree Days 36    
Moisture  
Dew Point 19 °F    
Average Humidity 65    
Maximum Humidity 89    
Minimum Humidity 43    
Precipitation  
Precipitation 0.00 in - - ()
Sea Level Pressure  
Sea Level Pressure 30.46 in    
Wind  
Wind Speed 5 mph (SSW)    
Max Wind Speed 14 mph    
Max Gust Speed 21 mph    
Visibility 10 miles    
Events      
Averages and records for this station are not official NWS values.
T = Trace of Precipitation, MM = Missing Value Source: NWS Daily Summary

Daily Weather History Graph

Daily Weather History Graph

Search for Another Location

Airport:

Trip Planner

Search our weather history database for the weather conditions in past years. The results will help you decide how hot, cold, wet, or windy it might be!

Date:

Astronomy

Jan. 18, 2013 Rise Set
Actual Time 7:53 AM EST 5:42 PM EST
Civil Twilight 7:24 AM EST 6:11 PM EST
Nautical Twilight 6:52 AM EST 6:44 PM EST
Astronomical Twilight 6:20 AM EST 7:16 PM EST
Moon 11:35 AM EST (1/18) 12:28 AM EST (1/18)
Length of Visible Light 10h 47m
Length of Day
9h 48m
Waxing Crescent, 47% of the Moon is Illuminated
Jan 18
Waxing Crescent
Jan 18
First Quarter
Jan 26
Full
Feb 3
Last Quarter
Feb 10
New

Hourly Weather History & Observations

Time (EST) Temp. Windchill Dew Point Humidity Pressure Visibility Wind Dir Wind Speed Gust Speed Precip Events Conditions
12:53 AM 27.0 °F 19.5 °F 18.0 °F 69% 30.46 in 10.0 mi NW 6.9 mph - N/A   Clear
1:53 AM 25.0 °F 19.3 °F 17.1 °F 72% 30.49 in 10.0 mi NNW 4.6 mph - N/A   Clear
2:53 AM 25.0 °F 20.7 °F 16.0 °F 69% 30.51 in 10.0 mi North 3.5 mph - N/A   Clear
3:53 AM 23.0 °F - 17.1 °F 78% 30.52 in 10.0 mi Calm Calm - N/A   Clear
4:53 AM 23.0 °F - 17.1 °F 78% 30.52 in 10.0 mi Calm Calm - N/A   Clear
5:53 AM 21.0 °F - 17.1 °F 85% 30.54 in 10.0 mi Calm Calm - N/A   Clear
6:53 AM 21.0 °F - 17.1 °F 85% 30.54 in 10.0 mi Calm Calm - N/A   Clear
7:53 AM 19.9 °F - 17.1 °F 89% 30.55 in 10.0 mi Calm Calm - N/A   Clear
8:53 AM 24.1 °F - 21.0 °F 88% 30.56 in 10.0 mi Calm Calm - N/A   Clear
9:53 AM 27.0 °F 20.5 °F 19.0 °F 72% 30.57 in 10.0 mi South 5.8 mph - N/A   Clear
10:53 AM 30.0 °F 24.1 °F 16.0 °F 56% 30.58 in 10.0 mi SSE 5.8 mph - N/A   Clear
11:53 AM 32.0 °F 24.8 °F 18.0 °F 56% 30.56 in 10.0 mi South 8.1 mph - N/A   Clear
12:53 PM 35.1 °F 29.3 °F 16.0 °F 46% 30.51 in 10.0 mi South 6.9 mph - N/A   Clear
1:53 PM 37.0 °F 28.5 °F 17.1 °F 44% 30.47 in 10.0 mi South 13.8 mph - N/A   Clear
2:53 PM 39.0 °F 31.4 °F 18.0 °F 43% 30.45 in 10.0 mi South 12.7 mph - N/A   Clear
3:53 PM 39.9 °F 32.9 °F 19.0 °F 43% 30.43 in 10.0 mi SSW 11.5 mph 20.7 mph N/A   Clear
4:53 PM 39.0 °F 31.8 °F 21.0 °F 49% 30.41 in 10.0 mi South 11.5 mph - N/A   Clear
5:53 PM 37.0 °F 29.3 °F 19.9 °F 50% 30.39 in 10.0 mi South 11.5 mph - N/A   Clear
6:53 PM 35.1 °F 26.9 °F 21.9 °F 59% 30.38 in 10.0 mi South 11.5 mph - N/A   Clear
7:53 PM 35.1 °F 27.9 °F 23.0 °F 61% 30.37 in 10.0 mi South 9.2 mph - N/A   Clear
8:53 PM 33.1 °F 27.7 °F 23.0 °F 66% 30.35 in 10.0 mi SSW 5.8 mph - N/A   Clear
9:53 PM 34.0 °F 29.8 °F 23.0 °F 64% 30.33 in 10.0 mi SW 4.6 mph - N/A   Clear
10:53 PM 32.0 °F 26.4 °F 23.0 °F 69% 30.30 in 10.0 mi SSW 5.8 mph - N/A   Clear
11:53 PM 34.0 °F 27.2 °F 23.0 °F 64% 30.29 in 10.0 mi SSW 8.1 mph - N/A   Clear